sat.trackr.live / text

‹ back to catalog

STARLINK-6130

NORAD 57104 · 2023-090D

PAYLOAD ACTIVE UNKNOWN

§ Identity

Operator
Country
US
Launch date
2023-06-23
Launch site
AFETR
Launch vehicle
Mass (kg)
RCS (m²)

Purposes: comms

External: N2YO · Heavens-Above · Gunter

§ Orbital elements

Epoch: 2026-09-20T08:41:17.262240Z

Period
94.27 min
Inclination
43.0014°
Eccentricity
0.0001085
Mean motion
15.27554585 rev/d
Perigee alt
482.4 km
Apogee alt
483.9 km
Semi-major
6,861.3 km
B*
-1.0789e-4
RAAN
262.2708°
Arg perigee
279.9568°
Mean anomaly
80.1161°
Rev number
18,009

§ Raw data

STARLINK-61301 57104U 23090D   26263.36200535 -.00003227  00000+0 -10789-3 0  99972 57104  43.0014 262.2708 0001085 279.9568  80.1161 15.27554585180090

JSON: /api/v1/satellites/57104 · /tle

For live sub-satellite position, see the globe view (requires WebGL).

§ Visibility from observer

Set your observer location to see the next 7 days of passes ≥ 10°. The values pass through the URL so the page stays shareable.

No JS? Fill the form by hand. The geolocation button needs JavaScript.